Wind_Speed
5 4 5 5 5 5 5 5 5 5 5 4 4 3 2 1 1 1 2 3 4 5 6 7 8 9 11 13 14 14 13 13 13 13 14 13 14 15 15 13 12 11 10 9 8 7 5 5 7 9 9 8 7 7 7 6 6 6 7 7 6 5 6 3 2 6 6 7 8 8 8 8 7 7 8 8 7 6 5 7 11 12 10 9 10 13 14 13
5 5 5 5 5 5 5 5 5 5 5 5 4 3 3 2 1 0 1 3 4 5 5 6 7 8 9 10 12 14 14 14 14 13 14 14 14 15 15 14 13 12 12 11 10 8 5 5 7 9 9 8 8 7 6 5 5 5 6 5 5 4 4 2 3 6 7 7 9 10 9 9 7 6 7 7 6 6 6 9 13 13 10 9 10 14 14 13
6 6 5 5 5 5 5 5 5 6 6 5 5 4 3 2 1 0 1 2 3 4 5 6 7 7 7 8 10 12 14 15 14 13 14 14 14 14 14 15 15 14 13 12 10 8 6 6 8 9 10 9 7 6 3 2 2 3 4 3 2 2 0 1 3 5 7 8 10 12 12 12 10 8 7 6 6 6 7 9 10 10 9 8 10 14 15 13
6 6 6 5 5 5 5 6 6 6 6 6 5 4 4 3 2 1 0 1 2 3 4 5 6 7 7 7 8 10 14 15 14 14 14 14 15 14 14 15 15 15 13 12 11 9 7 6 8 9 9 7 6 4 1 1 0 1 1 1 1 2 2 3 4 5 7 9 11 13 15 15 13 10 9 7 4 2 6 9 5 4 7 7 11 15 14 13
6 6 6 5 5 5 5 5 6 6 6 5 5 5 4 4 3 2 1 0 1 2 3 4 5 6 7 7 7 8 11 13 13 15 15 15 15 15 14 15 16 15 14 13 12 10 8 8 9 9 7 6 5 3 0 1 2 2 1 2 2 4 5 5 6 8 9 11 12 14 16 17 15 12 10 7 2 2 5 10 7 3 5 8 12 14 14 14
5 5 5 5 5 5 5 5 5 5 5 5 4 4 4 4 3 3 2 1 1 1 2 3 4 5 6 7 7 8 10 11 12 15 16 15 16 15 15 15 16 16 15 14 13 11 10 10 10 8 6 5 4 3 1 2 4 4 3 3 4 6 8 9 9 10 12 14 15 15 16 18 17 14 11 8 5 6 8 10 9 7 9 12 12 13 13 13
5 5 4 4 4 4 4 4 4 4 4 4 4 4 3 3 3 3 3 3 2 2 2 3 4 4 5 6 6 7 9 11 11 13 15 16 16 16 16 15 16 17 16 15 14 13 12 12 11 8 6 5 3 3 2 3 4 4 5 5 6 8 10 12 13 12 13 15 17 18 17 19 20 15 12 10 9 9 10 11 10 9 15 16 13 13 12 12
5 5 5 4 4 4 3 3 3 3 3 3 3 3 3 3 3 3 3 3 3 3 3 4 4 4 5 5 5 6 8 10 9 11 14 15 16 16 16 16 15 16 16 16 15 14 14 14 12 8 7 6 4 4 3 4 4 4 5 6 8 10 12 15 16 15 13 14 17 20 19 20 20 16 13 11 11 10 11 12 11 12 17 17 13 12 12 12
5 4 4 4 4 4 3 3 4 4 4 4 3 3 3 3 3 3 3 3 3 3 3 3 5 5 4 4 5 5 7 9 8 9 12 13 14 15 16 16 16 16 16 17 16 16 15 15 14 9 7 7 5 5 4 5 5 4 5 7 10 12 15 17 17 12 8 13 17 20 21 21 21 18 15 12 12 11 11 12 13 14 17 17 14 12 11 11
4 4 4 4 4 4 4 4 4 4 4 4 4 4 3 3 3 3 2 2 2 1 1 2 4 5 5 5 5 5 6 8 7 8 9 11 12 13 15 16 16 16 16 17 17 17 16 16 15 10 9 8 7 6 5 5 5 4 5 8 11 13 16 16 12 5 1 9 15 19 21 21 21 19 16 14 13 12 11 13 14 15 16 16 14 11 10 11
4 4 4 4 4 4 5 5 5 5 5 5 4 4 4 3 3 3 3 3 2 1 1 2 3 5 5 6 6 5 6 7 7 7 8 10 11 12 13 15 17 17 16 17 18 18 17 17 14 11 10 9 8 7 5 4 3 2 5 8 10 13 14 13 8 1 2 5 12 17 20 21 21 19 15 13 14 11 11 13 14 16 16 16 15 12 10 10
5 4 4 4 4 5 5 5 6 6 5 5 4 4 4 3 3 4 4 4 4 4 3 4 4 5 6 6 6 6 7 7 7 7 8 9 10 10 12 14 16 17 16 17 18 19 18 17 14 12 12 10 7 6 4 4 3 3 5 7 9 11 12 12 8 1 4 4 9 17 21 22 22 19 15 14 14 12 12 14 14 16 17 16 16 13 11 10
5 4 4 4 4 5 5 6 6 6 6 5 4 4 4 3 4 4 5 5 6 6 6 6 6 6 6 5 6 7 7 7 7 6 5 8 10 9 10 12 15 16 16 16 17 18 19 17 14 13 12 10 8 5 3 3 3 3 5 7 8 9 10 9 8 3 3 4 12 21 21 22 21 18 16 14 15 13 12 15 15 15 17 17 16 15 12 10
5 5 4 4 5 5 6 7 7 6 5 4 4 4 4 4 5 5 6 7 8 8 7 7 6 6 5 5 5 6 7 7 7 6 5 8 10 10 10 11 14 16 15 14 16 17 18 18 16 14 12 10 8 5 4 3 3 3 4 6 6 7 8 7 6 4 7 9 15 20 15 17 19 16 15 14 15 13 12 15 16 15 15 16 15 15 14 10
5 5 5 5 5 6 7 7 6 6 5 4 4 3 3 4 5 6 7 7 8 7 6 6 7 7 7 5 3 4 6 6 8 8 7 8 10 11 10 10 13 16 15 14 16 18 18 17 16 14 12 11 8 5 5 3 3 3 3 4 5 5 5 5 6 6 9 10 14 16 9 12 16 14 14 12 13 14 12 13 15 15 14 14 14 14 14 12
6 5 5 5 6 6 7 7 6 5 4 3 3 3 3 5 6 7 7 7 7 6 6 6 6 7 8 7 5 4 6 7 8 9 7 7 9 10 9 9 12 15 15 15 17 18 18 16 15 13 11 11 8 6 5 4 5 5 2 1 4 3 3 4 6 5 5 5 9 10 6 8 12 12 12 12 12 14 14 13 14 15 14 13 13 13 13 13
6 5 5 5 6 6 6 6 5 5 4 4 4 5 6 7 8 9 8 7 6 6 6 6 7 8 6 6 6 6 7 7 8 8 7 7 8 10 10 10 12 14 15 16 18 18 18 15 13 13 11 11 9 7 5 4 6 6 4 1 4 3 2 3 3 2 1 2 4 6 5 6 9 11 12 12 12 13 15 14 14 15 14 12 12 12 13 13
5 5 5 5 6 6 6 6 6 5 4 5 6 7 9 9 9 9 8 7 6 6 5 6 8 8 6 7 7 7 8 7 7 7 6 6 7 9 10 10 12 14 15 16 18 18 16 14 12 12 13 12 11 8 5 2 2 4 4 1 4 4 3 3 1 2 3 4 6 8 8 7 8 10 12 14 14 14 14 14 14 15 15 13 11 11 13 13
5 5 5 5 6 6 6 6 6 5 4 6 8 10 11 10 9 8 6 5 5 5 5 6 8 8 8 9 9 8 8 7 6 6 6 5 6 7 8 10 11 13 14 15 17 17 15 13 12 13 14 14 11 8 7 3 1 1 2 2 2 3 3 4 4 5 6 6 8 11 11 10 11 11 12 15 16 16 15 15 15 16 16 15 12 12 13 14
4 4 5 5 6 6 6 7 6 5 5 8 11 11 11 10 9 9 8 7 7 8 8 8 9 9 8 9 9 9 9 7 6 5 5 5 5 5 6 8 9 12 14 15 15 16 15 13 12 13 12 12 10 8 8 7 4 2 3 3 3 3 2 4 6 6 6 7 7 9 11 12 13 13 12 14 16 18 18 17 17 18 16 14 13 12 13 13
4 4 5 5 6 6 6 6 6 6 6 9 11 9 9 9 9 9 9 9 9 10 10 10 9 8 8 8 9 10 9 9 8 6 5 4 4 3 4 6 8 11 13 14 13 13 14 15 14 13 10 9 10 10 9 8 7 6 5 4 4 4 4 6 7 5 5 7 7 8 9 12 15 15 13 14 17 18 19 18 18 18 16 14 12 12 12 13
4 4 4 5 6 5 4 5 6 6 7 10 10 8 8 7 8 9 9 9 10 11 10 10 9 8 9 8 8 9 10 10 9 8 9 7 5 4 3 4 6 8 10 12 11 10 11 14 15 14 12 10 9 10 10 9 8 8 9 8 7 7 5 6 7 7 6 7 8 9 10 11 14 17 17 16 18 19 20 20 19 18 16 14 12 12 12 13
4 4 4 4 5 3 3 4 5 7 8 9 10 8 7 7 7 8 8 8 9 10 9 9 8 8 9 8 9 10 10 10 10 10 11 10 8 6 6 5 5 4 5 7 7 8 8 9 11 14 14 13 11 11 11 12 11 11 12 11 10 10 8 6 8 10 10 10 10 10 12 14 14 17 19 18 19 19 22 23 21 19 17 15 11 9 10 12
5 4 4 4 4 2 3 4 5 7 8 9 10 8 6 6 6 7 8 9 9 9 9 9 9 8 8 8 8 8 8 8 9 9 10 10 8 8 9 9 7 6 5 4 1 3 4 3 5 9 13 14 15 15 15 15 15 15 16 15 14 13 11 11 12 14 16 17 14 11 14 16 14 15 18 20 20 19 21 24 24 22 20 17 14 12 10 11
6 5 4 3 3 1 2 4 6 7 9 9 8 8 5 5 5 6 8 8 8 8 8 9 8 7 8 8 7 7 7 8 8 7 7 7 6 8 9 8 7 6 5 3 2 2 2 1 1 4 8 11 14 17 17 17 17 18 19 18 16 15 14 15 16 16 16 15 13 9 8 11 11 11 14 18 21 20 21 24 25 24 22 21 19 16 13 12
6 6 5 3 2 1 3 6 8 8 9 9 8 7 5 5 6 6 7 6 6 6 5 6 6 7 7 7 7 7 7 8 8 6 5 4 3 6 6 6 6 4 4 3 2 4 4 1 0 2 4 7 10 12 14 17 19 19 21 19 15 13 13 15 15 13 9 8 11 8 6 11 17 15 13 15 19 19 20 23 25 25 24 24 22 19 16 14
7 6 5 4 2 3 5 7 9 9 9 8 8 6 5 6 6 6 6 4 4 5 4 4 5 7 8 7 6 6 5 6 6 5 4 4 4 6 6 5 5 3 4 4 2 3 3 2 1 2 3 6 8 9 10 13 18 20 21 20 14 10 10 11 11 11 9 9 11 10 8 11 18 15 9 11 16 17 19 22 25 26 25 24 23 21 19 16
8 7 6 5 3 4 6 8 10 10 9 7 7 6 5 4 3 4 4 2 2 3 3 3 4 6 7 6 6 6 6 5 5 5 5 4 5 4 3 4 3 2 3 4 4 2 1 0 1 1 4 6 6 7 8 10 17 20 19 18 14 11 8 6 8 9 8 8 8 8 6 7 13 15 12 12 15 16 16 16 20 25 25 24 24 23 21 19
9 7 6 6 4 5 8 10 11 11 10 7 6 5 3 2 2 2 2 1 2 3 2 2 4 4 3 3 4 6 6 6 6 5 4 3 3 2 2 3 3 2 3 4 4 2 1 1 2 2 3 4 4 5 6 10 16 18 16 16 14 11 7 5 8 8 5 6 6 6 5 5 11 17 15 12 14 15 14 15 18 21 23 24 24 24 23 21
9 8 6 6 5 6 8 11 14 13 10 7 6 5 3 3 4 2 1 1 3 4 3 2 2 2 2 2 4 4 4 5 5 4 4 3 3 3 2 3 3 3 3 4 4 3 2 0 1 2 1 2 3 4 5 9 13 13 13 14 10 7 5 6 7 5 3 5 3 3 6 6 6 10 8 5 8 10 12 15 17 18 21 24 24 25 25 24
9 8 7 7 7 6 8 12 15 13 10 8 6 5 4 4 4 1 1 2 3 4 2 2 1 1 1 3 5 5 5 4 2 3 3 4 5 6 4 3 2 2 2 2 3 4 3 2 2 1 0 1 2 3 4 7 11 9 10 12 9 5 3 2 3 1 3 3 2 3 2 8 8 7 5 5 8 11 14 16 16 14 15 19 22 25 26 26
9 8 7 7 7 7 9 13 15 13 11 9 6 5 4 3 3 2 3 3 3 2 1 1 1 1 3 4 5 7 6 3 2 2 4 5 5 5 4 3 3 1 1 1 2 3 3 3 3 2 1 0 1 3 3 5 11 12 11 12 9 5 3 2 1 3 4 3 4 4 2 7 13 16 17 18 19 19 17 16 16 14 12 11 15 21 26 27
9 8 7 8 8 8 9 12 14 14 12 9 7 6 5 3 3 4 5 4 2 2 3 2 1 2 4 5 6 7 6 4 2 2 3 4 3 2 3 3 2 1 1 1 1 2 4 2 2 2 3 2 1 2 3 6 10 14 15 13 9 4 2 2 1 3 4 4 8 7 5 7 11 14 17 18 18 17 14 12 13 14 13 9 8 14 21 26
10 8 7 8 9 9 9 12 14 15 13 10 8 7 6 5 5 6 5 5 4 3 4 4 2 3 5 6 7 8 7 5 2 2 4 5 4 4 4 3 2 1 1 1 2 1 2 1 2 3 5 3 2 1 4 5 5 10 14 14 10 7 6 3 3 3 2 5 8 3 4 4 4 6 9 11 12 15 17 15 13 12 12 11 9 11 16 23
9 8 7 8 9 9 10 12 15 15 13 11 9 8 9 7 6 7 6 5 5 4 4 4 3 5 7 6 7 8 8 5 2 3 5 5 4 4 4 4 2 2 2 2 2 2 3 4 4 5 5 3 3 2 2 4 4 5 9 12 11 10 8 4 6 6 2 3 5 5 6 5 6 8 11 12 13 16 18 16 12 10 10 12 11 10 13 19
10 9 7 8 10 10 11 13 16 16 14 12 9 9 10 9 7 7 7 6 6 4 4 4 4 7 9 8 8 10 8 5 4 5 6 5 3 3 2 3 3 3 3 2 2 2 2 4 4 4 3 2 3 2 2 4 4 4 6 10 10 10 9 5 5 4 1 2 4 6 7 7 8 10 10 12 12 13 14 12 8 8 10 12 11 8 9 14
10 9 8 8 10 11 12 13 17 18 16 13 11 10 10 9 8 7 7 8 7 5 5 5 5 8 10 9 10 11 8 5 5 6 7 5 2 2 2 2 3 3 4 3 3 3 1 1 2 3 2 2 3 3 1 4 5 5 6 9 9 8 9 6 3 3 2 1 5 7 8 6 6 8 9 13 12 8 8 7 4 5 9 13 12 9 7 10
11 9 8 9 10 12 12 14 17 19 17 14 12 11 10 11 9 7 7 8 7 5 5 6 6 8 11 10 10 11 8 6 7 7 7 5 3 2 2 2 3 3 3 3 3 4 3 1 1 1 3 1 1 1 2 2 4 6 7 8 7 5 6 7 4 2 3 2 5 7 8 5 4 6 10 15 13 9 9 8 3 3 8 13 14 11 8 9
13 11 9 9 11 12 13 15 18 20 18 15 14 12 11 11 10 8 7 7 6 6 5 6 6 7 9 9 9 10 8 6 8 8 7 5 3 3 2 2 2 3 4 4 4 5 4 2 2 2 4 3 2 3 2 4 4 5 7 8 6 4 6 8 6 5 5 2 3 7 7 3 2 4 7 11 14 13 11 9 5 2 3 7 10 10 9 9
13 12 10 10 12 13 14 16 18 20 20 16 14 14 13 12 11 10 9 7 7 6 6 7 7 7 9 9 9 9 8 6 8 8 6 6 5 4 4 2 1 2 4 4 5 5 5 3 2 4 5 3 0 3 6 5 6 6 5 6 4 3 7 10 8 7 8 5 2 7 7 4 5 7 7 7 9 12 11 8 5 2 4 3 1 5 8 9
13 12 11 11 13 14 15 17 18 21 21 17 15 15 15 14 12 10 10 9 8 7 6 7 7 7 9 9 9 9 8 8 9 8 7 6 6 6 5 3 2 2 3 4 5 5 5 4 3 4 2 3 5 6 6 6 7 5 4 6 7 6 6 7 7 9 11 8 7 8 8 7 11 13 11 10 9 10 10 8 7 4 3 1 3 5 7 8
12 12 12 12 13 15 16 17 19 20 21 18 16 15 15 16 14 11 11 10 8 8 8 7 7 7 9 10 9 8 8 9 10 9 7 7 6 6 6 4 2 2 3 4 5 5 5 5 3 1 3 7 9 7 5 4 4 4 3 4 5 6 4 1 3 10 13 11 10 10 7 9 17 18 14 12 11 10 10 9 9 7 1 3 2 3 4 4
11 11 12 13 15 15 16 18 19 20 21 19 17 16 14 16 16 13 11 11 9 10 10 8 7 8 9 10 9 8 8 8 9 9 8 8 8 7 6 4 2 3 3 3 4 6 6 4 1 2 5 8 8 8 6 4 3 2 1 1 2 4 4 3 2 9 11 9 10 8 5 10 18 19 13 11 9 7 9 9 7 4 2 1 2 1 1 1
11 11 13 14 15 16 17 18 18 19 20 20 19 17 14 15 16 14 13 13 11 11 10 9 8 8 9 9 9 9 8 8 9 9 8 8 8 7 6 5 3 3 4 4 5 6 5 2 0 2 4 6 6 6 6 4 4 4 4 3 1 2 2 3 2 6 7 7 11 8 3 6 13 14 10 7 6 4 7 8 5 1 2 2 2 1 3 3
10 11 14 15 16 17 16 16 17 17 18 19 19 17 15 14 15 14 14 15 14 13 11 10 10 9 8 9 10 10 10 9 9 10 10 9 8 7 6 5 4 4 5 5 6 6 4 2 2 2 3 3 4 4 6 8 7 5 5 4 3 4 4 4 2 4 5 6 8 6 2 4 6 8 6 4 3 1 3 4 2 0 1 2 1 2 3 5
9 11 15 16 17 18 17 17 17 17 17 18 18 17 16 15 14 14 16 16 14 14 14 12 12 11 9 10 11 12 12 10 9 8 9 9 8 7 6 5 5 4 4 6 5 5 3 3 3 4 3 3 2 2 3 8 10 8 6 5 5 6 5 5 3 2 6 6 5 4 5 5 3 2 1 1 2 2 1 0 2 2 2 3 3 3 3 5
8 10 15 17 16 17 19 18 18 17 16 16 16 16 17 17 14 13 15 16 15 15 15 13 12 11 11 11 12 12 12 10 9 7 7 8 8 7 6 6 5 4 3 4 4 2 2 4 4 4 3 2 2 2 2 3 8 10 10 10 10 9 7 6 4 1 5 5 3 4 6 4 4 6 7 6 5 5 5 5 5 5 4 4 3 4 4 5
7 9 14 17 16 15 17 19 19 18 17 16 15 14 15 16 16 13 13 15 16 17 17 15 13 13 12 11 11 12 12 11 10 8 7 8 8 7 7 6 6 4 3 2 2 2 2 3 3 4 4 3 3 3 3 3 4 7 10 12 13 12 9 6 4 1 3 5 6 7 8 7 7 10 11 8 5 4 7 7 6 6 6 5 4 4 5 5
7 8 11 16 18 16 15 17 18 18 17 17 16 15 15 15 15 14 12 13 16 17 17 16 14 13 13 12 12 13 14 13 11 11 9 8 8 8 7 6 6 5 5 4 2 2 2 2 3 3 4 4 4 5 5 4 5 6 8 8 8 7 7 5 3 3 2 8 11 10 8 10 10 10 11 9 5 5 8 8 6 6 6 6 6 5 5 6
8 8 10 13 17 18 16 15 16 17 17 17 16 16 15 15 15 14 13 13 16 17 17 15 13 12 12 12 13 14 14 13 11 11 10 9 9 8 7 7 7 7 7 5 2 1 1 2 3 2 3 3 3 5 6 7 8 8 7 6 4 2 1 0 2 4 4 3 10 7 3 7 11 10 11 11 8 8 8 7 7 8 7 7 8 7 7 7
8 8 9 11 15 18 19 17 17 16 17 17 17 16 16 15 15 15 13 13 15 16 15 13 11 11 12 12 14 14 12 11 10 8 7 7 8 8 7 8 8 6 7 6 3 2 2 2 0 2 3 2 2 4 6 7 10 10 9 8 7 5 3 1 3 3 7 5 3 3 2 2 6 7 9 10 9 9 8 6 7 8 8 7 8 8 8 8
9 8 8 9 11 15 19 20 19 19 18 17 16 15 15 15 15 15 14 13 14 15 14 13 12 13 13 12 11 11 10 10 9 7 6 7 8 7 6 7 7 6 8 7 4 4 2 1 1 3 3 2 2 3 4 4 6 8 9 11 10 8 7 4 2 1 5 7 2 3 3 2 2 3 5 7 7 7 8 7 7 8 8 8 8 8 8 8
Wind_Direction
72 72 73 70 67 66 65 65 64 61 60 58 56 54 51 47 23 287 265 259 254 249 244 241 240 237 234 229 225 224 224 221 214 208 210 212 214 212 211 212 207 208 210 202 199 195 187 177 171 179 187 189 184 171 158 124 97 90 85 85 87 124 161 154 196 217 233 241 236 226 211 200 195 184 167 165 179 174 164 170 158 152 163 174 187 190 175 162
68 70 72 73 72 68 66 63 61 61 62 60 59 58 53 48 36 341 262 257 255 254 251 245 242 239 237 232 226 223 222 221 216 210 210 211 214 213 210 210 206 207 211 204 197 196 190 180 174 175 176 173 162 149 141 121 105 91 84 88 86 104 147 149 178 217 241 250 246 241 231 219 211 202 189 177 179 179 167 165 159 156 170 178 180 185 178 164
61 62 62 62 63 61 60 56 54 54 56 59 63 67 68 67 65 36 271 258 253 250 250 249 245 241 237 233 227 221 220 221 217 212 210 210 214 213 207 208 207 205 210 207 197 194 191 183 174 168 165 160 148 135 131 138 122 96 78 74 74 71 73 230 214 222 234 241 244 244 238 230 221 211 205 190 180 187 174 168 165 158 165 172 174 180 176 162
49 52 53 53 52 50 47 44 42 40 41 46 50 53 57 62 68 69 352 274 267 258 251 248 248 243 237 231 225 219 217 219 217 213 210 208 212 213 206 206 208 204 206 207 198 192 190 181 174 167 160 151 146 140 133 218 198 73 63 28 4 333 304 274 262 253 248 245 240 240 239 235 229 218 208 195 181 197 181 171 168 154 151 158 167 174 171 160
45 46 46 46 47 44 39 35 32 30 30 31 31 30 31 33 38 44 46 290 265 265 256 248 245 243 239 230 221 218 213 214 215 212 210 208 210 212 208 206 205 203 204 205 198 191 185 178 175 167 157 151 159 167 195 258 282 304 297 316 327 318 301 286 275 265 261 256 244 236 236 235 232 225 211 192 131 81 178 167 155 149 135 146 164 168 166 160
49 49 47 43 43 41 36 32 27 24 21 18 15 10 9 7 3 359 350 312 260 245 244 243 241 237 236 230 221 216 206 205 213 212 208 208 207 209 210 207 203 201 202 202 198 190 182 177 174 166 165 173 174 171 228 267 267 289 298 307 324 326 314 303 290 275 264 257 250 241 235 232 230 227 213 189 150 137 170 163 150 153 139 144 163 166 166 163
53 55 55 50 47 46 42 34 27 21 14 8 1 356 352 344 334 326 314 299 281 251 229 226 234 232 231 230 223 214 204 204 213 213 209 208 206 206 209 208 204 201 200 198 196 189 179 176 172 163 178 199 198 191 261 279 254 278 296 310 329 335 327 316 305 290 270 253 244 238 233 228 225 224 214 189 163 155 167 160 151 158 148 147 161 167 170 167
52 55 58 57 55 55 52 44 33 20 9 3 356 348 340 331 322 312 300 290 283 267 237 214 216 221 222 223 218 213 207 206 213 213 210 208 205 204 206 208 206 203 202 197 194 188 176 175 173 167 187 206 224 221 255 281 260 272 297 322 337 341 338 324 312 300 272 242 230 227 225 222 217 217 216 194 168 162 168 162 154 161 154 148 158 168 172 171
46 51 55 55 55 51 47 41 31 19 9 3 355 346 339 333 326 317 304 295 287 269 254 217 204 204 202 204 204 204 206 207 212 214 212 211 208 205 205 207 206 204 204 199 196 188 177 179 183 184 198 208 230 235 250 274 262 269 305 333 345 346 339 325 314 308 267 224 217 215 214 214 210 208 211 197 175 171 173 166 160 162 158 152 157 170 176 175
37 42 46 47 48 42 38 32 24 17 10 4 357 352 348 347 346 343 335 326 312 280 258 208 192 187 182 187 190 193 206 207 207 210 211 211 211 209 206 206 206 205 204 201 198 191 180 185 192 196 206 212 228 239 250 262 253 269 325 346 353 345 332 325 321 330 259 214 212 207 203 203 203 204 205 192 177 178 177 169 164 164 162 158 159 170 182 179
27 33 38 37 38 37 32 26 20 15 10 7 5 3 4 9 14 18 22 25 34 61 123 156 163 165 168 173 172 179 201 203 199 204 209 210 209 209 209 207 205 204 202 199 198 193 186 190 194 194 204 213 224 240 250 253 251 295 350 357 354 340 331 337 340 73 159 230 216 200 189 190 198 201 202 189 175 178 178 166 165 168 165 165 163 168 186 187
19 28 31 30 34 35 30 24 18 16 16 18 19 20 24 31 41 47 55 62 73 89 107 118 127 139 150 162 169 181 197 198 199 206 210 210 207 206 209 208 205 204 202 197 197 195 193 195 193 190 201 210 215 233 241 247 272 330 5 5 354 339 342 355 360 66 187 223 193 176 175 185 195 198 198 188 177 175 174 163 161 169 168 170 171 169 183 194
15 21 22 26 31 31 28 23 20 20 26 31 36 36 38 53 68 78 82 84 94 99 101 101 101 111 122 146 174 188 197 200 199 203 207 207 207 204 204 205 205 204 203 199 197 196 197 198 195 191 199 208 209 217 226 246 284 331 10 10 358 347 354 4 5 18 153 168 167 162 170 187 191 194 196 188 182 178 174 165 158 169 171 172 176 173 180 192
12 16 17 24 27 26 25 23 21 24 32 43 51 52 52 67 87 100 105 103 105 102 98 92 88 92 98 121 163 178 188 199 201 199 195 200 205 204 202 202 203 202 201 199 196 196 198 199 197 195 199 207 211 214 219 239 276 320 2 9 6 2 5 18 29 74 117 122 153 157 164 186 187 194 198 189 187 184 179 172 162 166 172 174 180 180 181 183
12 16 15 19 22 22 23 22 20 22 36 56 64 65 67 80 97 111 120 118 113 108 103 95 89 83 73 81 117 150 161 176 187 193 194 194 201 204 203 203 203 200 196 195 195 195 196 197 196 196 199 207 212 214 220 247 274 294 338 5 14 21 25 49 72 103 120 119 147 155 154 181 186 199 202 195 196 191 186 183 172 168 171 175 181 188 188 180
14 18 14 14 17 18 22 22 14 17 41 68 68 69 82 96 103 110 121 126 119 108 107 109 100 79 63 68 82 106 132 151 166 179 187 188 198 201 202 204 201 197 194 194 196 195 194 195 195 195 198 206 209 204 213 255 269 274 293 14 23 32 61 80 87 100 128 131 152 161 153 174 189 203 205 205 208 202 194 191 186 177 171 173 180 191 194 186
15 16 11 10 10 14 17 17 12 19 50 83 79 81 92 101 103 102 107 116 121 112 108 109 97 80 66 68 76 90 110 133 153 165 175 179 190 195 197 201 197 195 194 194 195 196 195 195 195 196 199 205 206 200 209 259 270 274 282 21 35 36 72 84 97 90 162 195 186 194 194 187 197 207 212 218 220 213 203 198 200 191 180 177 181 191 197 194
13 9 8 4 4 8 7 12 22 30 63 97 98 96 99 103 106 105 102 102 109 107 102 105 100 91 78 70 76 90 104 123 141 153 170 177 185 192 195 195 194 195 194 194 196 196 197 198 197 198 203 211 210 199 198 256 306 291 279 304 28 32 39 37 20 341 302 250 244 246 241 226 220 221 223 229 228 220 210 205 208 202 193 187 188 193 195 196
9 2 0 358 358 1 4 18 34 47 82 108 110 106 103 102 103 105 101 97 101 100 101 108 106 100 85 72 71 80 94 116 138 153 166 175 186 195 198 195 195 195 192 194 198 199 200 200 200 203 210 217 216 203 205 220 2 349 277 258 321 353 358 352 338 337 326 286 263 260 259 255 250 243 233 232 230 221 214 211 208 207 203 197 194 196 195 194
1 355 353 353 354 359 11 30 46 65 97 120 119 110 105 103 100 98 94 98 107 111 116 112 102 98 90 79 73 74 80 90 114 148 158 172 187 193 201 200 197 195 193 194 201 206 205 201 203 209 215 220 218 216 220 231 246 286 300 287 292 305 328 338 330 324 320 305 286 274 270 261 252 250 242 234 231 223 217 214 208 206 207 202 193 194 196 191
351 347 346 349 353 2 26 44 59 79 111 133 128 114 110 108 102 98 96 101 109 112 115 110 101 98 93 86 83 81 80 80 86 102 112 139 169 171 195 195 189 193 195 196 203 210 212 211 210 210 215 220 221 226 234 242 246 255 275 290 293 288 305 320 323 331 313 289 291 294 281 264 252 252 249 237 234 230 224 222 215 208 205 201 193 194 199 192
337 339 340 345 354 9 45 56 69 90 119 145 141 122 116 113 104 103 104 107 112 113 113 110 105 100 92 88 86 85 87 85 82 89 94 103 118 122 152 168 174 190 199 204 209 216 223 226 222 218 218 221 226 235 245 256 256 255 262 271 277 280 299 314 325 350 337 291 292 294 283 276 261 254 252 243 238 234 228 226 221 215 208 200 193 193 201 201
324 324 331 342 355 19 68 66 79 97 117 145 152 138 123 119 117 112 114 117 118 119 118 114 109 100 94 92 92 91 93 91 89 95 97 97 103 108 107 109 121 146 183 198 211 226 237 240 232 225 225 228 232 237 244 255 259 257 259 265 266 267 278 291 307 331 330 310 304 294 285 283 268 254 249 242 239 236 230 226 220 217 213 202 194 196 204 210
313 311 318 337 356 37 96 86 98 107 116 135 151 152 138 130 132 123 121 120 116 118 120 118 112 102 96 92 92 95 97 97 98 102 104 98 96 105 100 92 97 102 113 131 160 242 239 244 228 220 222 227 233 236 238 245 252 254 254 259 258 264 278 280 287 307 314 309 306 300 291 286 276 261 251 239 237 236 232 229 225 220 215 204 200 203 206 211
305 302 301 323 351 95 137 118 119 121 123 130 148 161 156 138 135 132 132 125 118 119 117 119 116 106 101 90 87 98 103 105 103 105 112 96 86 112 105 84 97 101 94 106 62 63 136 145 183 205 217 224 232 237 237 239 247 252 251 255 260 269 280 280 285 302 309 309 313 311 291 290 292 276 260 248 242 238 233 233 232 228 221 212 207 202 201 207
300 295 288 302 330 199 171 140 135 134 131 132 145 157 153 133 123 124 131 125 128 129 111 115 118 108 106 98 90 93 98 108 105 100 104 79 78 128 117 83 93 89 70 91 104 105 109 87 184 216 223 227 237 238 235 235 240 247 249 253 265 271 274 279 289 300 296 300 316 310 267 280 295 290 275 260 251 244 237 233 234 234 229 222 214 205 201 203
297 289 280 281 279 208 183 160 152 148 141 139 142 144 139 133 121 115 118 113 129 132 110 111 106 95 101 102 91 80 89 107 106 102 101 95 108 122 117 104 102 82 70 72 82 125 120 73 160 234 232 228 244 248 243 238 237 244 248 252 263 271 270 279 289 290 282 287 302 294 261 271 287 292 293 272 257 252 246 236 233 234 235 230 221 211 205 202
298 285 274 266 258 214 193 178 169 162 155 150 147 144 139 146 145 124 121 118 135 140 128 117 94 90 97 95 81 77 91 99 97 102 97 107 128 117 106 121 118 82 58 35 31 79 129 110 146 233 233 223 236 246 241 231 232 239 246 252 256 259 268 292 308 308 303 295 287 268 250 261 274 285 303 290 263 256 260 255 242 235 234 234 228 218 208 203
301 285 269 257 247 221 203 192 183 175 168 162 159 159 158 188 196 147 118 122 140 148 138 112 105 93 72 91 94 88 93 91 92 93 66 72 113 81 77 112 100 76 53 36 30 35 21 248 236 264 246 223 216 230 228 219 226 233 240 247 247 247 265 315 331 334 317 279 263 250 244 248 276 292 305 299 275 269 277 281 269 250 236 233 233 227 216 207
305 286 266 250 241 226 210 200 192 185 177 174 175 178 191 202 184 148 121 141 149 150 123 77 108 83 17 127 136 127 108 93 83 70 54 74 85 70 117 131 84 73 79 65 45 24 26 36 251 264 255 226 217 230 225 215 220 229 233 230 223 225 257 307 334 348 287 263 272 289 264 235 270 312 326 312 290 287 285 283 282 269 247 236 234 231 225 216
307 289 266 246 238 227 212 203 197 191 185 182 183 187 191 187 179 171 174 153 138 141 122 30 50 97 169 164 158 157 144 123 90 69 78 105 93 78 106 154 128 82 97 97 77 69 71 76 93 103 314 271 235 246 243 218 208 207 211 205 183 150 177 280 350 356 252 279 19 6 265 216 234 278 292 289 293 290 288 286 287 283 262 247 240 233 228 223
310 291 266 244 234 227 215 205 199 194 189 185 185 186 179 176 190 192 162 149 130 136 171 300 14 164 182 178 170 164 159 152 138 113 111 117 108 82 70 110 164 174 109 137 126 125 126 100 90 81 16 245 221 262 256 205 196 190 188 194 183 130 124 159 343 280 265 291 303 295 235 222 244 263 274 281 286 285 288 291 288 280 266 257 248 235 229 226
311 293 267 243 232 228 220 210 201 194 188 187 187 187 183 185 195 176 153 151 142 138 175 193 234 210 196 194 190 183 178 168 151 150 141 130 128 116 80 92 133 126 45 72 106 173 173 143 103 63 41 69 204 248 192 168 189 197 194 197 192 158 145 152 146 280 279 302 303 283 240 250 261 268 275 279 284 286 287 294 293 277 260 255 251 235 229 227
312 294 266 243 233 228 221 211 200 190 185 186 187 188 193 192 180 170 164 169 170 162 180 202 231 213 198 198 197 191 186 178 164 164 163 153 125 110 101 91 94 58 12 1 28 80 179 129 42 37 41 41 11 289 190 170 187 205 207 212 212 207 218 203 156 186 244 320 322 292 209 240 261 266 279 287 295 298 295 296 294 277 254 245 243 230 224 227
310 294 268 243 233 225 219 210 198 189 184 184 189 194 198 196 181 176 176 175 179 178 185 200 211 199 190 187 193 193 191 192 191 178 177 178 152 116 94 70 61 45 8 326 357 54 108 94 57 43 48 28 352 334 213 188 184 192 200 212 220 221 223 192 141 151 162 320 302 252 231 251 273 280 284 287 297 303 301 299 292 270 240 228 233 232 224 225
305 293 270 243 231 224 218 209 198 192 189 188 197 203 201 196 187 186 189 187 187 184 186 189 189 192 188 185 195 196 192 201 205 182 179 183 164 140 119 69 58 46 38 33 28 46 112 109 73 57 66 54 12 357 211 207 208 185 183 204 214 217 213 181 135 134 116 311 275 259 259 271 283 285 282 283 292 301 302 300 288 259 226 213 221 233 230 223
296 290 270 245 231 225 219 210 200 197 196 196 203 207 203 198 189 187 194 199 196 187 186 187 183 192 191 190 197 196 193 205 202 183 177 177 157 133 140 98 73 54 38 34 26 24 45 132 116 74 64 100 85 56 167 206 206 190 185 198 199 202 207 198 149 96 102 276 283 279 279 291 296 287 295 303 300 309 330 329 297 246 218 204 205 216 226 219
285 282 267 245 230 224 219 212 205 202 202 203 206 206 204 202 195 190 191 195 197 194 190 186 183 193 193 189 191 191 192 197 194 196 193 184 191 191 148 109 80 57 36 15 358 3 6 289 199 41 28 72 144 31 60 124 172 184 181 175 170 179 193 191 189 145 146 229 291 287 284 300 322 314 335 344 337 342 4 3 344 235 213 204 198 199 208 216
276 274 263 245 231 224 218 213 208 206 206 206 206 206 204 202 199 199 200 196 195 198 196 186 185 195 193 187 184 184 190 196 194 201 205 195 204 209 178 138 81 48 30 15 357 350 345 318 267 314 356 356 281 235 145 97 110 140 156 161 170 189 187 188 189 153 138 148 286 284 280 277 321 328 348 360 355 350 358 8 22 72 178 191 194 202 212 222
269 268 260 244 232 224 218 214 210 208 207 205 204 204 205 206 203 205 210 204 197 203 195 179 181 196 196 191 190 190 197 208 208 209 213 213 210 194 185 177 99 19 9 6 357 349 342 335 325 322 333 344 313 150 143 140 128 128 140 139 128 145 178 193 192 167 159 148 193 269 276 261 269 290 298 318 340 341 345 355 1 51 85 68 229 240 253 258
266 263 255 242 233 225 218 214 210 207 206 204 201 201 206 210 206 208 216 211 201 200 189 176 183 196 199 200 202 200 201 209 214 215 215 214 207 197 203 219 242 304 356 4 354 352 348 335 328 329 336 149 150 135 131 143 140 132 124 103 87 95 154 191 196 190 192 174 178 241 271 274 270 281 296 302 307 318 326 333 343 23 72 325 286 273 275 276
264 257 247 236 229 224 217 212 210 208 207 203 200 201 209 212 208 209 216 216 208 203 199 194 198 202 202 203 203 201 206 213 213 211 211 212 211 207 209 216 239 295 342 355 349 350 345 326 312 291 167 164 166 160 150 151 147 132 110 100 77 66 83 151 194 186 195 196 198 224 257 271 271 276 289 297 299 309 318 328 351 13 20 241 260 280 279 278
260 248 239 231 226 222 217 214 213 211 208 206 205 208 213 213 211 212 214 217 216 214 216 212 206 207 205 204 207 205 205 210 210 212 216 214 211 211 215 228 269 317 332 341 344 345 338 326 302 181 178 178 181 177 165 167 187 182 178 136 61 39 38 5 231 186 193 203 199 206 237 253 262 271 283 300 315 328 327 337 357 348 254 184 114 183 233 69
255 244 234 227 225 224 219 218 218 215 213 213 213 216 217 213 214 216 214 216 218 216 216 210 205 212 209 205 212 213 207 209 209 211 217 213 209 214 227 248 281 318 326 324 331 335 330 311 224 175 178 185 196 194 180 176 185 197 222 232 338 342 346 355 286 205 204 214 203 203 228 236 250 267 286 315 333 332 325 340 1 301 233 106 105 166 135 112
248 238 228 223 224 224 222 222 222 219 217 218 219 221 220 215 217 221 218 217 219 215 210 205 208 220 222 212 214 218 222 229 221 209 211 213 210 215 229 251 275 297 309 313 327 331 312 264 226 212 208 204 206 215 213 209 207 210 223 233 268 284 300 345 329 201 202 224 217 215 219 206 239 269 295 322 326 317 328 343 9 275 186 122 131 143 114 111
243 230 222 219 223 225 223 223 223 222 222 221 222 223 221 218 222 227 225 223 220 214 209 208 211 221 228 222 219 220 223 232 231 213 208 212 215 222 233 250 264 276 302 314 328 332 293 229 196 199 215 215 210 273 255 228 228 234 241 253 265 267 290 339 359 189 207 227 232 231 224 213 224 253 256 223 170 140 141 184 140 149 175 178 163 149 119 108
242 227 218 215 218 224 225 225 226 226 225 225 226 226 223 221 222 226 229 227 217 209 210 211 213 220 227 227 225 222 218 220 226 218 205 206 215 227 235 248 260 266 292 303 308 315 251 201 186 194 214 234 249 303 321 258 242 246 255 271 279 284 304 337 2 188 208 214 212 217 220 211 188 175 165 154 144 148 159 164 158 155 167 181 171 159 149 133
249 230 219 215 215 219 223 225 228 229 228 229 229 227 224 223 223 223 226 226 216 207 209 215 218 225 236 239 235 224 211 205 209 213 215 213 216 226 235 250 268 267 244 235 226 219 217 200 205 233 255 274 269 260 276 286 265 259 264 270 275 284 297 318 353 58 194 195 181 189 207 203 181 169 157 135 113 139 153 147 146 150 154 162 160 157 159 153
259 238 225 220 219 221 221 223 227 231 232 234 234 231 227 228 227 224 222 222 215 207 210 218 224 230 238 241 238 227 216 211 210 213 223 227 224 231 241 246 245 224 195 181 176 211 229 215 217 251 272 276 264 251 250 252 259 272 278 270 265 272 278 294 346 34 183 199 184 176 196 199 176 160 157 147 127 139 147 142 138 139 139 142 147 158 165 163
269 252 238 228 223 223 222 220 223 228 233 236 237 234 232 234 234 230 226 222 213 207 211 218 224 231 234 236 238 235 230 231 233 230 231 234 230 234 244 236 215 197 192 191 188 252 219 199 219 269 300 284 260 253 246 243 247 256 270 270 253 228 221 54 49 47 37 208 194 177 179 192 175 160 156 156 152 148 147 149 148 141 138 141 148 160 169 171
276 264 252 239 229 225 223 221 221 225 230 235 237 236 235 238 238 236 234 227 217 212 214 219 226 234 236 236 238 238 235 236 240 239 235 237 242 248 245 228 213 204 203 205 213 216 137 116 239 304 305 282 264 251 241 246 254 256 260 262 257 248 240 107 101 70 33 15 214 183 60 151 173 163 153 151 150 148 150 161 162 152 147 151 156 165 173 179
279 272 263 251 240 233 228 225 223 223 227 232 234 233 233 236 238 238 237 229 219 217 220 223 228 235 238 238 238 235 229 224 223 222 220 229 244 253 239 226 228 225 217 212 213 213 188 135 335 323 302 270 271 263 248 250 258 255 251 250 250 251 254 252 212 165 20 17 25 162 133 108 96 101 137 150 149 152 161 164 159 158 160 162 168 174 180 186
Height
3157 3157 3157 3157 3157 3157 3157 3156 3156 3156 3156 3156 3156 3156 3155 3155 3155 3155 3155 3155 3154 3154 3155 3155 3155 3155 3155 3156 3157 3158 3158 3159 3160 3161 3161 3162 3163 3164 3165 3166 3168 3168 3169 3170 3171 3172 3172 3173 3173 3174 3174 3175 3175 3175 3176 3176 3176 3176 3176 3176 3176 3176 3177 3177 3177 3178 3178 3179 3179 3179 3180 3181 3181 3182 3182 3183 3184 3184 3184 3185 3186 3187 3188 3189 3190 3192 3193 3194
3157 3157 3157 3157 3157 3157 3157 3157 3157 3156 3156 3156 3156 3156 3155 3155 3155 3155 3155 3154 3154 3154 3154 3154 3154 3154 3155 3155 3156 3157 3157 3158 3159 3160 3161 3161 3162 3163 3164 3165 3167 3168 3168 3169 3170 3172 3172 3173 3173 3174 3175 3175 3175 3176 3176 3176 3176 3176 3176 3176 3177 3177 3177 3177 3177 3178 3179 3179 3179 3180 3180 3181 3182 3183 3183 3183 3184 3185 3185 3186 3186 3187 3188 3189 3190 3192 3194 3195
3158 3157 3157 3157 3157 3157 3157 3157 3157 3156 3156 3156 3156 3156 3155 3155 3155 3155 3154 3154 3154 3154 3154 3153 3154 3154 3154 3155 3155 3156 3156 3157 3158 3159 3160 3161 3161 3162 3163 3164 3165 3167 3168 3169 3170 3171 3172 3173 3173 3174 3175 3175 3176 3176 3176 3176 3176 3176 3176 3177 3177 3177 3177 3177 3177 3178 3178 3179 3179 3180 3180 3181 3182 3183 3183 3184 3185 3185 3186 3187 3187 3188 3188 3190 3191 3192 3194 3196
3158 3157 3157 3157 3157 3157 3157 3157 3157 3156 3156 3156 3156 3155 3155 3155 3155 3155 3154 3154 3154 3153 3153 3153 3153 3153 3154 3154 3154 3155 3155 3156 3158 3158 3159 3160 3160 3161 3162 3163 3164 3166 3167 3169 3170 3171 3172 3173 3173 3174 3174 3175 3175 3176 3176 3176 3176 3176 3176 3176 3177 3177 3177 3177 3177 3177 3178 3178 3178 3179 3180 3180 3181 3182 3183 3185 3186 3186 3187 3187 3189 3189 3189 3190 3192 3193 3195 3196
3158 3158 3157 3157 3157 3157 3157 3157 3157 3156 3156 3156 3156 3155 3155 3155 3155 3154 3154 3154 3153 3153 3153 3153 3153 3153 3153 3153 3154 3154 3155 3156 3157 3157 3158 3159 3159 3160 3162 3163 3164 3165 3167 3168 3169 3171 3172 3173 3173 3174 3174 3175 3175 3175 3175 3176 3176 3175 3176 3176 3176 3176 3176 3176 3177 3177 3177 3177 3177 3178 3179 3180 3181 3182 3184 3185 3186 3187 3187 3188 3189 3190 3190 3191 3193 3194 3196 3197
3158 3158 3158 3158 3157 3157 3157 3157 3157 3157 3156 3156 3156 3155 3155 3154 3154 3154 3154 3153 3153 3153 3153 3153 3152 3152 3153 3153 3153 3154 3154 3155 3156 3156 3157 3158 3159 3160 3161 3162 3163 3164 3166 3167 3168 3170 3171 3172 3173 3174 3174 3175 3175 3175 3175 3175 3175 3175 3175 3175 3175 3175 3175 3175 3175 3175 3175 3176 3176 3176 3178 3179 3181 3182 3184 3186 3186 3186 3187 3188 3189 3189 3190 3192 3194 3195 3196 3197
3158 3158 3158 3158 3158 3158 3157 3157 3157 3157 3157 3156 3156 3155 3155 3154 3154 3154 3153 3153 3153 3153 3152 3152 3152 3152 3152 3152 3153 3153 3154 3154 3155 3155 3156 3157 3158 3159 3160 3161 3162 3164 3165 3166 3168 3169 3170 3172 3173 3173 3174 3174 3175 3175 3175 3175 3175 3175 3174 3174 3174 3174 3173 3172 3172 3172 3172 3173 3174 3175 3176 3178 3180 3182 3184 3185 3186 3187 3187 3188 3189 3190 3190 3192 3194 3196 3197 3198
3159 3158 3158 3158 3158 3158 3158 3158 3157 3157 3157 3156 3156 3155 3155 3154 3154 3153 3153 3153 3152 3152 3152 3152 3152 3152 3152 3152 3152 3153 3153 3154 3155 3155 3156 3157 3157 3158 3159 3160 3162 3163 3164 3165 3167 3168 3170 3171 3172 3173 3173 3174 3174 3175 3175 3175 3175 3174 3174 3173 3173 3172 3171 3170 3169 3169 3169 3170 3171 3172 3174 3176 3179 3182 3184 3185 3186 3187 3188 3188 3189 3190 3190 3192 3194 3196 3198 3199
3159 3159 3158 3158 3158 3158 3158 3158 3157 3157 3157 3156 3156 3155 3154 3154 3153 3153 3152 3152 3152 3152 3151 3151 3151 3151 3151 3152 3152 3153 3153 3154 3154 3155 3156 3156 3157 3158 3159 3160 3161 3162 3164 3165 3166 3168 3169 3171 3172 3172 3173 3173 3174 3174 3175 3174 3174 3174 3173 3173 3172 3171 3170 3168 3167 3166 3166 3167 3168 3170 3172 3175 3178 3181 3183 3185 3187 3187 3188 3189 3189 3190 3191 3192 3194 3197 3198 3199
3159 3159 3158 3158 3158 3158 3158 3158 3157 3157 3156 3156 3155 3155 3154 3154 3153 3153 3152 3152 3152 3151 3151 3151 3151 3151 3151 3152 3152 3152 3153 3153 3154 3155 3155 3156 3157 3158 3159 3160 3161 3162 3163 3165 3166 3167 3169 3170 3171 3172 3173 3173 3173 3174 3174 3174 3174 3174 3173 3172 3171 3170 3169 3168 3166 3165 3165 3165 3166 3168 3171 3174 3177 3181 3183 3184 3186 3187 3188 3189 3190 3191 3192 3193 3194 3197 3198 3199
3159 3159 3158 3158 3158 3158 3158 3157 3157 3157 3156 3156 3155 3155 3154 3154 3153 3153 3152 3152 3152 3151 3151 3151 3151 3151 3151 3151 3152 3152 3153 3153 3153 3154 3155 3156 3156 3158 3159 3160 3161 3162 3163 3164 3165 3167 3168 3169 3171 3172 3172 3173 3173 3174 3174 3174 3174 3173 3173 3172 3171 3170 3169 3167 3165 3165 3165 3165 3165 3167 3171 3174 3177 3180 3182 3185 3187 3188 3189 3189 3190 3191 3192 3193 3195 3196 3198 3199
3159 3158 3158 3158 3158 3158 3158 3157 3157 3157 3156 3156 3155 3155 3154 3154 3154 3153 3153 3152 3152 3152 3151 3151 3151 3151 3151 3151 3152 3152 3152 3152 3153 3154 3155 3155 3156 3157 3158 3159 3160 3162 3162 3163 3164 3166 3167 3169 3170 3172 3172 3173 3173 3174 3174 3174 3174 3173 3173 3172 3172 3171 3169 3168 3166 3165 3165 3165 3166 3168 3172 3175 3178 3180 3182 3185 3187 3188 3189 3190 3191 3191 3192 3194 3195 3196 3198 3200
3159 3159 3158 3158 3158 3158 3158 3157 3157 3157 3156 3156 3155 3155 3155 3154 3154 3154 3153 3153 3153 3152 3152 3152 3152 3152 3152 3152 3152 3152 3152 3152 3153 3154 3155 3155 3156 3157 3158 3159 3160 3161 3162 3163 3164 3166 3167 3169 3170 3171 3172 3173 3173 3174 3174 3174 3174 3173 3173 3173 3172 3172 3170 3169 3168 3167 3166 3166 3167 3169 3173 3176 3178 3180 3182 3184 3187 3188 3190 3190 3191 3192 3193 3194 3195 3196 3198 3200
3159 3159 3158 3158 3158 3158 3157 3157 3157 3157 3156 3156 3155 3155 3155 3154 3154 3154 3154 3154 3153 3153 3153 3153 3152 3152 3152 3152 3151 3151 3152 3152 3153 3154 3155 3155 3156 3156 3158 3159 3160 3160 3162 3163 3164 3166 3167 3168 3170 3171 3172 3173 3173 3174 3174 3174 3174 3174 3174 3173 3173 3173 3172 3171 3170 3169 3168 3168 3169 3172 3175 3177 3179 3181 3182 3184 3187 3189 3190 3191 3191 3193 3193 3194 3195 3197 3198 3200
3159 3159 3158 3158 3158 3158 3157 3157 3157 3156 3156 3156 3155 3155 3155 3155 3155 3154 3154 3154 3154 3154 3154 3153 3153 3153 3153 3152 3152 3152 3152 3152 3153 3154 3154 3155 3155 3156 3158 3159 3159 3160 3162 3163 3164 3165 3167 3168 3170 3171 3172 3173 3173 3174 3174 3175 3175 3174 3174 3174 3174 3174 3174 3173 3172 3172 3172 3172 3173 3175 3177 3179 3180 3182 3183 3185 3187 3189 3190 3192 3192 3193 3194 3195 3196 3197 3198 3199
3159 3159 3159 3158 3158 3158 3158 3157 3156 3156 3156 3156 3156 3155 3155 3155 3155 3155 3155 3155 3155 3155 3154 3154 3154 3154 3154 3153 3152 3152 3152 3153 3153 3154 3154 3155 3156 3157 3158 3159 3159 3161 3162 3163 3164 3165 3167 3168 3169 3171 3172 3173 3173 3174 3175 3175 3175 3175 3175 3175 3175 3175 3175 3175 3175 3175 3175 3175 3176 3177 3178 3179 3181 3182 3183 3184 3186 3188 3190 3192 3193 3194 3194 3195 3196 3197 3198 3199
3159 3159 3159 3158 3158 3158 3158 3157 3156 3156 3156 3156 3156 3155 3155 3155 3155 3155 3155 3155 3156 3155 3155 3155 3154 3154 3155 3154 3153 3153 3153 3153 3154 3154 3155 3155 3156 3157 3158 3158 3159 3160 3162 3163 3164 3165 3167 3168 3169 3171 3172 3172 3173 3174 3175 3176 3176 3175 3176 3176 3176 3176 3177 3177 3177 3177 3177 3178 3178 3179 3179 3179 3180 3181 3183 3184 3186 3187 3189 3191 3193 3194 3195 3195 3196 3197 3198 3200
3160 3159 3159 3158 3158 3158 3157 3157 3157 3156 3156 3156 3156 3156 3156 3156 3156 3156 3156 3156 3156 3156 3156 3156 3155 3155 3156 3155 3154 3154 3154 3154 3155 3155 3155 3156 3156 3157 3158 3159 3159 3160 3162 3163 3164 3165 3167 3168 3169 3171 3171 3172 3172 3174 3175 3176 3176 3176 3176 3177 3177 3177 3178 3178 3178 3178 3179 3179 3179 3179 3179 3180 3181 3181 3182 3183 3185 3186 3188 3190 3192 3194 3195 3195 3196 3197 3198 3200
3160 3159 3159 3159 3158 3158 3157 3157 3157 3157 3157 3157 3157 3157 3156 3156 3157 3157 3157 3156 3156 3156 3157 3156 3156 3156 3156 3156 3155 3155 3155 3155 3155 3156 3156 3156 3157 3158 3158 3159 3160 3161 3162 3163 3164 3165 3166 3168 3169 3170 3171 3171 3173 3174 3175 3175 3175 3176 3176 3177 3177 3178 3178 3178 3178 3179 3180 3180 3179 3179 3179 3180 3181 3181 3182 3182 3184 3185 3187 3189 3191 3192 3193 3194 3195 3196 3198 3199
3160 3160 3159 3159 3158 3158 3157 3157 3157 3157 3157 3157 3157 3157 3157 3157 3157 3157 3157 3157 3157 3157 3157 3157 3157 3157 3157 3156 3156 3156 3156 3156 3156 3156 3156 3157 3158 3158 3159 3160 3160 3161 3162 3163 3164 3165 3166 3168 3169 3170 3171 3171 3172 3173 3173 3174 3175 3175 3176 3176 3177 3178 3178 3178 3179 3179 3180 3180 3179 3179 3179 3180 3180 3181 3181 3182 3183 3184 3186 3187 3189 3191 3192 3193 3194 3196 3197 3199
3160 3160 3159 3159 3158 3158 3157 3157 3157 3157 3157 3158 3158 3158 3158 3158 3158 3158 3158 3158 3158 3158 3158 3158 3158 3158 3158 3157 3157 3157 3157 3157 3157 3157 3157 3158 3158 3159 3160 3160 3160 3161 3162 3163 3164 3165 3166 3167 3168 3169 3170 3171 3172 3172 3173 3174 3174 3175 3176 3176 3177 3178 3178 3178 3178 3179 3179 3179 3179 3178 3179 3179 3179 3180 3180 3181 3182 3183 3185 3186 3188 3190 3191 3192 3193 3195 3196 3198
3160 3160 3159 3159 3158 3158 3158 3157 3157 3157 3157 3158 3158 3159 3159 3159 3159 3159 3159 3159 3159 3159 3159 3159 3159 3159 3158 3158 3158 3158 3158 3158 3158 3158 3158 3158 3159 3160 3160 3160 3161 3161 3162 3163 3164 3165 3166 3166 3167 3169 3170 3170 3171 3172 3173 3173 3174 3175 3175 3176 3177 3177 3178 3178 3178 3179 3179 3179 3178 3178 3178 3178 3178 3179 3179 3180 3181 3182 3184 3185 3187 3189 3190 3191 3192 3194 3195 3197
3160 3160 3159 3159 3158 3158 3158 3157 3157 3157 3157 3158 3158 3159 3159 3159 3159 3159 3160 3160 3160 3159 3159 3159 3160 3160 3159 3159 3159 3159 3159 3159 3159 3159 3159 3159 3160 3161 3161 3161 3161 3162 3163 3163 3164 3165 3166 3166 3166 3168 3169 3170 3171 3172 3172 3173 3174 3175 3175 3176 3176 3177 3178 3178 3178 3178 3178 3178 3178 3178 3177 3176 3177 3177 3177 3178 3179 3181 3182 3183 3185 3187 3188 3190 3191 3193 3194 3196
3160 3159 3159 3159 3158 3158 3158 3157 3157 3157 3157 3158 3158 3159 3159 3160 3160 3160 3160 3160 3160 3160 3160 3160 3160 3160 3160 3160 3160 3160 3160 3160 3160 3160 3160 3161 3161 3162 3162 3162 3162 3163 3163 3164 3164 3165 3165 3165 3166 3166 3168 3169 3170 3170 3171 3172 3173 3174 3174 3175 3176 3176 3178 3178 3177 3178 3177 3177 3177 3177 3176 3173 3174 3174 3175 3176 3177 3178 3180 3182 3183 3185 3186 3188 3189 3191 3193 3194
3159 3159 3159 3158 3158 3158 3158 3157 3157 3157 3158 3158 3159 3159 3160 3160 3160 3160 3161 3161 3161 3161 3161 3161 3161 3161 3161 3161 3160 3160 3161 3161 3161 3161 3161 3161 3162 3162 3163 3163 3163 3164 3164 3164 3165 3165 3165 3165 3165 3166 3167 3168 3168 3169 3170 3171 3172 3172 3172 3173 3175 3176 3177 3177 3177 3178 3177 3177 3177 3178 3176 3172 3171 3173 3173 3174 3175 3176 3178 3179 3181 3183 3184 3186 3187 3189 3191 3192
3159 3158 3158 3158 3158 3158 3158 3157 3157 3158 3158 3159 3159 3159 3160 3160 3160 3161 3161 3161 3162 3162 3162 3161 3161 3161 3161 3161 3161 3161 3161 3161 3161 3162 3162 3162 3162 3162 3163 3163 3164 3164 3164 3164 3164 3165 3165 3165 3165 3166 3166 3167 3167 3168 3169 3170 3171 3171 3171 3172 3174 3176 3176 3176 3177 3178 3178 3177 3176 3178 3177 3173 3170 3171 3172 3173 3173 3174 3176 3177 3179 3181 3182 3184 3185 3187 3189 3191
3158 3158 3158 3158 3158 3157 3157 3157 3158 3158 3158 3159 3159 3159 3160 3160 3161 3161 3161 3161 3162 3162 3162 3162 3162 3161 3161 3162 3162 3162 3162 3162 3162 3162 3162 3162 3163 3163 3163 3163 3164 3164 3164 3164 3164 3164 3165 3165 3165 3165 3166 3166 3166 3167 3167 3169 3170 3170 3170 3172 3174 3175 3176 3176 3177 3177 3177 3176 3176 3176 3177 3175 3170 3168 3170 3171 3171 3172 3173 3174 3176 3178 3180 3182 3184 3186 3188 3190
3157 3157 3157 3157 3157 3157 3157 3157 3157 3158 3158 3159 3159 3160 3160 3160 3161 3161 3161 3162 3162 3162 3162 3162 3162 3162 3162 3162 3162 3162 3162 3162 3162 3163 3162 3163 3163 3163 3163 3163 3163 3164 3164 3164 3164 3164 3164 3164 3164 3164 3165 3165 3165 3166 3166 3167 3168 3167 3169 3171 3173 3174 3175 3176 3176 3176 3176 3176 3175 3174 3176 3176 3170 3167 3169 3170 3170 3170 3170 3172 3174 3176 3178 3181 3182 3184 3186 3188
3156 3156 3156 3156 3156 3156 3156 3157 3157 3158 3158 3159 3159 3160 3160 3160 3160 3161 3161 3161 3162 3162 3162 3162 3162 3162 3162 3162 3162 3163 3163 3163 3163 3163 3163 3163 3163 3163 3163 3163 3163 3164 3164 3164 3164 3164 3163 3163 3164 3164 3164 3164 3164 3164 3165 3166 3165 3166 3168 3171 3172 3173 3174 3175 3176 3176 3176 3175 3173 3173 3175 3176 3170 3167 3168 3169 3168 3169 3170 3171 3173 3174 3177 3179 3180 3182 3184 3187
3155 3155 3155 3155 3155 3155 3156 3156 3156 3157 3158 3159 3159 3159 3160 3160 3160 3161 3161 3161 3161 3161 3162 3162 3162 3162 3162 3162 3162 3163 3163 3163 3163 3163 3163 3163 3163 3163 3163 3163 3163 3164 3164 3164 3163 3163 3163 3163 3163 3163 3163 3163 3163 3164 3164 3164 3164 3166 3168 3169 3171 3172 3173 3175 3176 3176 3175 3173 3172 3172 3173 3175 3172 3167 3167 3168 3168 3169 3170 3170 3171 3172 3174 3176 3178 3180 3182 3185
3154 3154 3154 3154 3154 3154 3155 3155 3156 3157 3158 3158 3159 3159 3160 3160 3160 3160 3160 3161 3161 3161 3162 3162 3162 3162 3162 3162 3162 3163 3163 3163 3163 3163 3163 3163 3163 3163 3163 3163 3163 3164 3164 3164 3163 3163 3163 3162 3162 3162 3162 3162 3163 3163 3163 3163 3164 3166 3167 3168 3170 3171 3173 3175 3176 3176 3175 3172 3171 3171 3172 3174 3173 3168 3167 3167 3168 3168 3169 3168 3169 3169 3171 3172 3175 3177 3180 3182
3153 3152 3152 3153 3153 3153 3154 3154 3155 3156 3157 3158 3158 3159 3159 3160 3160 3160 3160 3160 3160 3161 3161 3161 3161 3161 3162 3162 3162 3163 3163 3163 3163 3163 3163 3163 3163 3163 3163 3163 3163 3163 3164 3164 3163 3163 3163 3162 3162 3162 3162 3162 3162 3162 3162 3162 3163 3165 3166 3167 3168 3170 3173 3175 3175 3175 3173 3172 3172 3172 3172 3173 3171 3168 3167 3167 3167 3167 3167 3167 3167 3168 3169 3169 3171 3173 3176 3179
3152 3151 3151 3151 3152 3152 3153 3153 3154 3155 3156 3157 3158 3158 3159 3159 3159 3159 3159 3160 3160 3160 3160 3161 3161 3161 3161 3162 3162 3163 3163 3163 3163 3163 3163 3164 3164 3163 3163 3163 3163 3163 3163 3163 3163 3163 3162 3162 3162 3162 3162 3161 3162 3162 3162 3162 3163 3164 3165 3166 3167 3168 3172 3175 3176 3176 3174 3173 3172 3172 3172 3171 3168 3167 3167 3166 3166 3165 3165 3165 3165 3165 3167 3168 3168 3170 3172 3176
3150 3150 3150 3150 3151 3151 3152 3153 3154 3155 3156 3156 3157 3157 3158 3158 3158 3158 3159 3159 3159 3159 3160 3160 3160 3161 3161 3161 3162 3162 3163 3163 3163 3163 3164 3164 3164 3164 3164 3163 3163 3163 3163 3163 3163 3162 3162 3162 3162 3162 3161 3161 3162 3161 3161 3161 3162 3163 3163 3165 3165 3166 3168 3170 3173 3175 3175 3174 3173 3172 3172 3169 3167 3167 3166 3166 3166 3164 3163 3163 3163 3163 3164 3166 3167 3167 3169 3172
3149 3149 3149 3149 3149 3150 3151 3152 3153 3154 3155 3155 3156 3156 3157 3157 3157 3158 3158 3158 3159 3159 3159 3159 3160 3160 3160 3161 3161 3162 3162 3163 3163 3163 3164 3164 3164 3164 3164 3164 3163 3163 3163 3162 3162 3162 3162 3162 3162 3162 3161 3162 3161 3161 3161 3161 3161 3162 3162 3164 3164 3165 3165 3166 3169 3171 3172 3174 3173 3171 3170 3167 3167 3167 3166 3166 3165 3164 3162 3161 3161 3161 3162 3164 3165 3166 3167 3169
3148 3147 3147 3148 3148 3149 3149 3150 3151 3153 3153 3154 3155 3155 3156 3156 3157 3157 3157 3158 3158 3158 3158 3159 3159 3159 3160 3160 3161 3161 3162 3162 3163 3163 3164 3164 3164 3164 3164 3163 3163 3163 3163 3162 3162 3162 3162 3162 3162 3162 3162 3162 3161 3161 3161 3161 3161 3161 3162 3162 3163 3164 3164 3165 3167 3169 3170 3172 3172 3169 3168 3167 3167 3166 3165 3165 3165 3163 3161 3159 3159 3159 3160 3162 3164 3165 3166 3167
3146 3146 3146 3146 3147 3147 3148 3149 3150 3151 3152 3153 3154 3154 3155 3156 3156 3156 3156 3157 3157 3158 3158 3158 3158 3159 3159 3160 3160 3161 3162 3162 3162 3163 3163 3164 3164 3164 3164 3163 3163 3163 3163 3162 3163 3163 3163 3163 3162 3162 3162 3162 3162 3161 3161 3161 3161 3161 3161 3161 3161 3163 3164 3164 3166 3168 3170 3172 3170 3168 3167 3167 3166 3166 3165 3164 3163 3162 3160 3159 3158 3158 3159 3161 3163 3164 3165 3167
3144 3144 3144 3145 3145 3146 3147 3147 3148 3150 3151 3152 3152 3153 3154 3155 3155 3155 3156 3156 3157 3157 3157 3157 3158 3158 3159 3159 3160 3160 3161 3162 3162 3162 3163 3163 3163 3163 3163 3163 3163 3163 3162 3162 3162 3162 3162 3162 3162 3162 3162 3162 3162 3162 3161 3161 3160 3160 3160 3161 3161 3162 3163 3163 3165 3167 3170 3172 3171 3167 3166 3167 3166 3166 3164 3163 3162 3161 3160 3159 3158 3158 3158 3160 3161 3163 3164 3166
3142 3142 3143 3143 3143 3144 3145 3146 3147 3148 3149 3150 3151 3152 3153 3153 3154 3154 3154 3155 3156 3156 3157 3157 3157 3158 3158 3159 3159 3160 3160 3161 3161 3162 3162 3163 3163 3163 3163 3163 3163 3163 3162 3162 3162 3162 3162 3162 3162 3162 3162 3162 3162 3162 3162 3161 3161 3161 3160 3161 3162 3162 3162 3163 3164 3165 3167 3172 3174 3170 3166 3166 3166 3165 3164 3164 3162 3161 3161 3160 3159 3158 3158 3159 3161 3162 3164 3165
3140 3140 3141 3141 3141 3142 3143 3144 3145 3146 3147 3149 3150 3151 3151 3152 3152 3153 3153 3154 3155 3155 3156 3156 3157 3157 3158 3158 3159 3159 3160 3160 3161 3161 3161 3162 3162 3162 3162 3163 3163 3162 3162 3162 3162 3162 3162 3162 3162 3162 3162 3162 3162 3161 3161 3161 3161 3161 3161 3161 3162 3162 3162 3163 3164 3165 3166 3169 3174 3173 3167 3164 3164 3164 3164 3164 3163 3162 3161 3160 3159 3159 3160 3161 3162 3163 3164 3165
3138 3138 3139 3139 3140 3140 3141 3142 3143 3144 3146 3147 3148 3149 3150 3150 3151 3152 3152 3153 3154 3154 3155 3155 3156 3157 3157 3158 3158 3159 3159 3160 3160 3160 3160 3161 3161 3162 3162 3162 3162 3162 3162 3162 3162 3162 3162 3162 3162 3162 3162 3162 3162 3161 3161 3161 3161 3161 3161 3162 3162 3162 3162 3162 3163 3165 3166 3166 3170 3172 3168 3163 3162 3163 3163 3163 3163 3162 3161 3160 3159 3159 3161 3162 3162 3163 3163 3163
3136 3136 3136 3137 3138 3138 3139 3140 3141 3142 3144 3145 3147 3147 3148 3149 3150 3151 3151 3152 3153 3153 3154 3155 3155 3156 3156 3157 3157 3158 3159 3159 3159 3159 3160 3160 3161 3161 3161 3161 3162 3162 3162 3162 3162 3162 3162 3162 3162 3162 3162 3162 3161 3161 3161 3160 3160 3160 3161 3161 3161 3162 3162 3162 3162 3163 3165 3165 3167 3169 3168 3163 3161 3161 3162 3162 3162 3162 3160 3159 3160 3161 3161 3161 3161 3162 3162 3162
3134 3134 3135 3135 3136 3137 3138 3138 3139 3140 3142 3144 3145 3146 3146 3147 3149 3149 3150 3151 3151 3152 3153 3154 3155 3155 3156 3156 3157 3157 3158 3158 3158 3159 3159 3160 3160 3160 3161 3161 3161 3161 3161 3161 3161 3161 3161 3161 3161 3161 3162 3161 3161 3161 3160 3160 3160 3160 3160 3160 3160 3161 3161 3161 3161 3162 3163 3164 3164 3167 3166 3162 3160 3160 3161 3162 3163 3162 3160 3159 3160 3161 3160 3160 3161 3161 3161 3161
3132 3132 3133 3133 3134 3135 3136 3136 3137 3139 3140 3142 3143 3144 3145 3146 3147 3148 3149 3149 3150 3151 3152 3153 3154 3154 3155 3156 3156 3156 3157 3158 3158 3158 3159 3159 3159 3160 3160 3160 3160 3160 3161 3161 3161 3161 3161 3161 3161 3161 3161 3161 3161 3161 3160 3160 3160 3160 3159 3159 3159 3159 3159 3160 3160 3160 3161 3162 3162 3163 3162 3160 3160 3160 3161 3162 3163 3162 3160 3159 3160 3160 3159 3159 3160 3160 3159 3159
3130 3130 3131 3132 3132 3133 3134 3135 3136 3137 3139 3140 3141 3142 3144 3145 3145 3146 3147 3148 3149 3150 3151 3152 3152 3153 3154 3155 3155 3156 3156 3156 3157 3157 3158 3158 3158 3159 3159 3159 3160 3160 3160 3160 3160 3160 3160 3160 3160 3159 3160 3160 3160 3160 3159 3159 3159 3159 3158 3158 3158 3158 3158 3158 3158 3158 3159 3159 3160 3161 3160 3160 3160 3160 3161 3162 3162 3161 3160 3159 3160 3159 3159 3159 3159 3159 3158 3158
3129 3129 3129 3130 3131 3132 3132 3133 3134 3136 3137 3138 3139 3140 3142 3143 3144 3145 3146 3146 3147 3148 3149 3150 3151 3152 3153 3154 3154 3155 3155 3155 3156 3156 3157 3157 3158 3158 3158 3159 3159 3159 3159 3159 3159 3159 3159 3159 3159 3158 3158 3159 3159 3159 3158 3158 3158 3158 3157 3157 3157 3156 3156 3156 3156 3156 3157 3157 3159 3160 3160 3160 3160 3160 3160 3161 3161 3161 3160 3159 3159 3159 3159 3159 3158 3158 3157 3157
3127 3127 3127 3128 3129 3130 3131 3132 3133 3134 3135 3136 3138 3139 3140 3141 3142 3143 3144 3145 3146 3147 3148 3149 3150 3151 3151 3152 3153 3153 3154 3154 3155 3155 3156 3156 3157 3157 3157 3157 3158 3158 3158 3158 3158 3158 3158 3158 3158 3158 3158 3158 3158 3158 3158 3157 3157 3157 3156 3156 3155 3155 3155 3155 3155 3155 3155 3156 3157 3158 3159 3159 3159 3158 3159 3159 3160 3159 3159 3159 3159 3159 3159 3158 3157 3157 3157 3157
3125 3126 3126 3126 3127 3128 3128 3130 3131 3132 3133 3135 3136 3137 3138 3139 3141 3141 3142 3143 3144 3145 3146 3147 3148 3149 3150 3151 3151 3152 3152 3153 3154 3154 3155 3155 3156 3156 3156 3156 3157 3157 3157 3157 3157 3157 3157 3157 3157 3157 3157 3157 3157 3157 3157 3157 3156 3156 3155 3155 3154 3154 3154 3154 3153 3153 3154 3155 3155 3156 3157 3158 3158 3157 3157 3158 3158 3157 3157 3158 3159 3158 3158 3158 3157 3157 3157 3156
3124 3124 3124 3125 3125 3126 3127 3128 3129 3130 3131 3133 3134 3135 3136 3137 3138 3139 3140 3141 3142 3143 3144 3145 3146 3147 3148 3149 3150 3150 3151 3152 3152 3153 3153 3154 3154 3155 3155 3155 3155 3156 3156 3156 3156 3156 3156 3156 3156 3156 3156 3156 3156 3156 3156 3156 3155 3155 3154 3154 3154 3153 3153 3153 3153 3153 3154 3154 3154 3155 3156 3156 3156 3156 3156 3156 3156 3156 3156 3158 3158 3157 3157 3157 3157 3157 3157 3156
3122 3122 3123 3123 3124 3124 3125 3126 3127 3128 3129 3130 3132 3133 3134 3136 3137 3138 3139 3139 3140 3141 3142 3144 3145 3146 3147 3148 3148 3149 3149 3150 3151 3152 3152 3153 3153 3154 3154 3154 3154 3155 3155 3155 3156 3156 3156 3156 3156 3155 3155 3156 3156 3155 3155 3155 3155 3155 3155 3154 3154 3153 3153 3152 3152 3152 3153 3154 3153 3154 3156 3156 3156 3155 3155 3155 3155 3155 3156 3157 3157 3157 3156 3156 3156 3156 3156 3156
3120 3121 3121 3121 3122 3122 3123 3124 3126 3127 3128 3128 3130 3131 3133 3134 3135 3136 3137 3138 3139 3140 3141 3142 3144 3144 3145 3146 3147 3147 3148 3150 3150 3151 3151 3152 3152 3153 3153 3153 3153 3154 3154 3154 3155 3155 3155 3155 3155 3155 3155 3155 3155 3155 3154 3154 3155 3155 3155 3154 3154 3153 3153 3153 3152 3152 3153 3154 3153 3154 3156 3157 3157 3156 3154 3154 3155 3155 3155 3157 3157 3156 3156 3155 3156 3155 3155 3155
3119 3119 3119 3119 3120 3120 3121 3122 3124 3125 3126 3126 3128 3129 3131 3132 3133 3134 3135 3136 3137 3138 3139 3141 3142 3143 3144 3145 3145 3146 3148 3149 3149 3150 3150 3151 3151 3151 3152 3152 3152 3153 3153 3153 3154 3154 3154 3154 3154 3154 3154 3154 3154 3154 3154 3154 3154 3154 3154 3154 3153 3153 3153 3153 3153 3152 3153 3154 3153 3154 3156 3158 3158 3156 3154 3154 3154 3155 3156 3157 3156 3156 3155 3155 3155 3155 3154 3154